SWR9EX HECA-LSZH

Flight info

Callsign SWR9EX
Flight time N/A
Altitude 38000
Route CVO L617 NABSI M872 METRU UM872 PLH UL604 TRL DCT TIGRA DCT AIOSA DCT IPKIS DCT PEVAL DCT MOBDO DCT EKPEB DCT SOTOV/N0412F300 P66 KPT L856 NEGRA
Aircraft A20N/M-SDE2E3FGHIRWXY/LB1

Departure

Time 2026-04-27 15:53
Airport Cairo International Airport (HECA)

Arrival

Time N/A
Airport Zürich Airport (LSZH)
Time Latitude Longitude Altitude Speed Heading
2026-04-27 14:10 30.10820 31.40005 387 ft 0 kts 256°
2026-04-27 15:41 30.10820 31.40006 387 ft 1 kts 256°
2026-04-27 15:41 30.10824 31.40022 387 ft 2 kts 255°
2026-04-27 15:41 30.10828 31.40039 387 ft 2 kts 256°
2026-04-27 15:41 30.10832 31.40056 387 ft 2 kts 255°
2026-04-27 15:42 30.10836 31.40073 387 ft 2 kts 255°
2026-04-27 15:42 30.10838 31.40084 387 ft 1 kts 256°
2026-04-27 15:42 30.10844 31.40100 387 ft 2 kts 234°
2026-04-27 15:42 30.10853 31.40112 387 ft 2 kts 217°
2026-04-27 15:43 30.10867 31.40121 387 ft 2 kts 198°
2026-04-27 15:43 30.10875 31.40123 387 ft 1 kts 187°
2026-04-27 15:43 30.10882 31.40124 387 ft 0 kts 185°
2026-04-27 15:48 30.10869 31.40123 387 ft 4 kts 186°
2026-04-27 15:48 30.10802 31.40118 387 ft 12 kts 199°
2026-04-27 15:49 30.10664 31.39955 387 ft 13 kts 229°
2026-04-27 15:49 30.10600 31.39869 387 ft 14 kts 231°
2026-04-27 15:49 30.10565 31.39786 387 ft 10 kts 251°
2026-04-27 15:49 30.10500 31.39758 387 ft 11 kts 170°
2026-04-27 15:50 30.10420 31.39782 387 ft 12 kts 166°
2026-04-27 15:50 30.10337 31.39767 387 ft 13 kts 221°
2026-04-27 15:50 30.10278 31.39686 387 ft 13 kts 232°
2026-04-27 15:50 30.10214 31.39602 387 ft 14 kts 228°
2026-04-27 15:51 30.10140 31.39580 387 ft 11 kts 153°
2026-04-27 15:51 30.10073 31.39643 387 ft 13 kts 140°
2026-04-27 15:51 30.10007 31.39716 387 ft 12 kts 116°
2026-04-27 15:51 30.10004 31.39830 387 ft 14 kts 80°
2026-04-27 15:52 30.10040 31.39923 387 ft 13 kts 50°
2026-04-27 15:52 30.10194 31.40123 387 ft 68 kts 48°
2026-04-27 15:52 30.10661 31.40739 388 ft 135 kts 49°
2026-04-27 15:52 30.11396 31.41732 488 ft 179 kts 46°
2026-04-27 15:53 30.12184 31.42818 1170 ft 176 kts 46°
2026-04-27 15:53 30.12963 31.43847 1985 ft 169 kts 39°
2026-04-27 15:53 30.13864 31.44637 2719 ft 162 kts 22°
2026-04-27 15:53 30.14924 31.44995 3289 ft 165 kts
2026-04-27 15:54 30.16101 31.44964 3838 ft 175 kts 353°
2026-04-27 15:54 30.17325 31.44727 4406 ft 187 kts 340°
2026-04-27 15:54 30.18480 31.43929 4889 ft 206 kts 319°
2026-04-27 15:54 30.19373 31.42531 5389 ft 229 kts 298°
2026-04-27 15:55 30.19758 31.40687 5873 ft 253 kts 278°
2026-04-27 15:55 30.19810 31.39280 6252 ft 265 kts 276°
2026-04-27 15:55 30.19873 31.36435 7316 ft 273 kts 276°
2026-04-27 15:55 30.19916 31.34226 8197 ft 276 kts 276°
2026-04-27 15:56 30.19961 31.32046 8997 ft 279 kts 276°
2026-04-27 15:56 30.20140 31.29807 9802 ft 277 kts 292°
2026-04-27 15:56 30.21112 31.27966 10524 ft 273 kts 317°
2026-04-27 15:56 30.22532 31.26465 11003 ft 288 kts 319°
2026-04-27 15:57 30.24044 31.24840 11489 ft 302 kts 319°
2026-04-27 15:57 30.25589 31.23158 12208 ft 308 kts 318°
2026-04-27 15:57 30.27133 31.21467 12981 ft 311 kts 318°
2026-04-27 15:57 30.28717 31.19731 13738 ft 315 kts 317°
2026-04-27 15:58 30.30310 31.17982 14452 ft 319 kts 317°
2026-04-27 15:58 30.31920 31.16212 15167 ft 322 kts 317°
2026-04-27 15:58 30.33526 31.14444 15911 ft 324 kts 317°
2026-04-27 15:58 30.35170 31.12635 16605 ft 327 kts 317°
2026-04-27 15:59 30.36821 31.10816 17293 ft 330 kts 316°
2026-04-27 15:59 30.38473 31.08995 17977 ft 332 kts 316°
2026-04-27 15:59 30.40166 31.07127 18648 ft 335 kts 316°
2026-04-27 15:59 30.41845 31.05274 19258 ft 339 kts 316°
2026-04-27 16:00 30.43558 31.03382 19886 ft 342 kts 316°
2026-04-27 16:00 30.44694 31.02128 20302 ft 343 kts 316°
2026-04-27 16:00 30.47017 30.99560 21105 ft 348 kts 316°
2026-04-27 16:00 30.48763 30.97629 21703 ft 351 kts 315°
2026-04-27 16:01 30.50523 30.95681 22285 ft 354 kts 315°
2026-04-27 16:01 30.52320 30.93692 22853 ft 357 kts 315°
2026-04-27 16:01 30.54126 30.91691 23417 ft 360 kts 315°
2026-04-27 16:01 30.55928 30.89692 23984 ft 362 kts 315°
2026-04-27 16:02 30.57763 30.87658 24545 ft 365 kts 315°
2026-04-27 16:02 30.59574 30.85648 25077 ft 367 kts 315°
2026-04-27 16:02 30.61424 30.83595 25601 ft 369 kts 315°
2026-04-27 16:02 30.63308 30.81503 26039 ft 374 kts 315°
2026-04-27 16:03 30.65183 30.79419 26446 ft 378 kts 315°
2026-04-27 16:03 30.67095 30.77294 26917 ft 380 kts 315°
2026-04-27 16:03 30.68995 30.75182 27376 ft 382 kts 315°
2026-04-27 16:03 30.70912 30.73047 27810 ft 384 kts 315°
2026-04-27 16:04 30.72846 30.70892 28217 ft 387 kts 314°
2026-04-27 16:04 30.74782 30.68736 28596 ft 389 kts 314°
2026-04-27 16:04 30.76743 30.66547 28985 ft 391 kts 314°
2026-04-27 16:04 30.78714 30.64348 29365 ft 392 kts 314°
2026-04-27 16:05 30.80668 30.62166 29727 ft 393 kts 314°
2026-04-27 16:05 30.82635 30.59969 30054 ft 395 kts 314°
2026-04-27 16:05 30.84616 30.57756 30379 ft 396 kts 314°
2026-04-27 16:05 30.86615 30.55521 30792 ft 394 kts 314°
2026-04-27 16:06 30.88575 30.53329 31219 ft 392 kts 314°
2026-04-27 16:06 30.90535 30.51134 31599 ft 390 kts 314°
2026-04-27 16:06 30.92479 30.48956 31989 ft 388 kts 314°
2026-04-27 16:06 30.94414 30.46787 32384 ft 386 kts 314°
2026-04-27 16:07 30.96320 30.44650 32755 ft 384 kts 313°
2026-04-27 16:07 30.98246 30.42489 33118 ft 382 kts 314°
2026-04-27 16:07 31.00159 30.40339 33478 ft 380 kts 313°
2026-04-27 16:07 31.02057 30.38205 33818 ft 378 kts 313°
2026-04-27 16:08 31.03896 30.36057 34109 ft 375 kts 310°
2026-04-27 16:08 31.05605 30.33752 34353 ft 374 kts 306°
2026-04-27 16:08 31.07153 30.31338 34594 ft 373 kts 302°
2026-04-27 16:08 31.08540 30.28818 34812 ft 372 kts 298°
2026-04-27 16:09 31.09777 30.26173 35032 ft 372 kts 295°
2026-04-27 16:09 31.11752 30.20609 35503 ft 370 kts 288°
2026-04-27 16:09 31.12549 30.17758 35731 ft 370 kts 288°
2026-04-27 16:10 31.14121 30.12070 36212 ft 370 kts 288°
2026-04-27 16:10 31.15682 30.06369 36664 ft 369 kts 287°
2026-04-27 16:11 31.16462 30.03529 36867 ft 369 kts 288°
2026-04-27 16:11 31.18328 29.97958 37197 ft 371 kts 293°
2026-04-27 16:12 31.20696 29.92567 37453 ft 375 kts 298°
2026-04-27 16:12 31.22057 29.89976 37604 ft 376 kts 300°
2026-04-27 16:12 31.25071 29.84976 37869 ft 379 kts 303°
2026-04-27 16:13 31.26611 29.82497 37975 ft 380 kts 303°
2026-04-27 16:13 31.31281 29.75001 37985 ft 381 kts 303°
2026-04-27 16:14 31.37504 29.64999 37989 ft 381 kts 303°
2026-04-27 16:15 31.43721 29.54981 37989 ft 381 kts 303°
2026-04-27 16:16 31.49935 29.44944 37993 ft 381 kts 303°
2026-04-27 16:17 31.56129 29.34915 37997 ft 381 kts 303°
2026-04-27 16:18 31.62310 29.24858 38004 ft 380 kts 303°
2026-04-27 16:19 31.65400 29.19816 37990 ft 381 kts 303°
2026-04-27 16:20 31.71574 29.09717 37998 ft 383 kts 303°
2026-04-27 16:21 31.76215 29.02111 38004 ft 382 kts 303°
2026-04-27 16:22 31.82372 28.91999 38009 ft 382 kts 303°
2026-04-27 16:22 31.86996 28.84388 38005 ft 382 kts 303°
2026-04-27 16:23 31.91618 28.76768 38007 ft 382 kts 303°
2026-04-27 16:24 31.94698 28.71679 38013 ft 383 kts 303°
2026-04-27 16:25 32.00872 28.61464 38010 ft 382 kts 303°
2026-04-27 16:26 32.06991 28.51307 38017 ft 382 kts 303°
2026-04-27 16:27 32.13142 28.41072 38026 ft 383 kts 303°
2026-04-27 16:28 32.20808 28.28273 38039 ft 382 kts 303°
2026-04-27 16:29 32.28456 28.15470 38029 ft 383 kts 303°
2026-04-27 16:30 32.34568 28.05202 38036 ft 383 kts 303°
2026-04-27 16:31 32.42166 27.92401 38032 ft 382 kts 303°
2026-04-27 16:32 32.46747 27.84662 38030 ft 382 kts 303°
2026-04-27 16:33 32.51286 27.76975 38032 ft 382 kts 303°
2026-04-27 16:33 32.54328 27.71813 38033 ft 382 kts 303°
2026-04-27 16:34 32.57364 27.66659 38037 ft 382 kts 303°
2026-04-27 16:34 32.60392 27.61509 38042 ft 383 kts 303°
2026-04-27 16:35 32.63441 27.56319 38032 ft 382 kts 303°
2026-04-27 16:36 32.67976 27.48583 38035 ft 382 kts 303°
2026-04-27 16:36 32.71011 27.43398 38036 ft 382 kts 303°
2026-04-27 16:37 32.74018 27.38239 38042 ft 382 kts 303°
2026-04-27 16:37 32.77038 27.33049 38042 ft 382 kts 303°
2026-04-27 16:38 32.80057 27.27857 38035 ft 383 kts 303°
2026-04-27 16:38 32.83076 27.22657 38039 ft 383 kts 303°
2026-04-27 16:39 32.86092 27.17456 38039 ft 382 kts 303°
2026-04-27 16:39 32.89079 27.12296 38035 ft 382 kts 303°
2026-04-27 16:40 32.92084 27.07098 38037 ft 382 kts 303°
2026-04-27 16:40 32.95100 27.01873 38048 ft 382 kts 303°
2026-04-27 16:41 32.98090 26.96688 38043 ft 382 kts 303°
2026-04-27 16:41 33.01104 26.91437 38041 ft 382 kts 303°
2026-04-27 16:42 33.04097 26.86220 38042 ft 382 kts 303°
2026-04-27 16:42 33.07075 26.81021 38045 ft 382 kts 303°
2026-04-27 16:43 33.10060 26.75802 38040 ft 383 kts 303°
2026-04-27 16:43 33.13067 26.70540 38045 ft 383 kts 303°
2026-04-27 16:44 33.16066 26.65281 38045 ft 383 kts 303°
2026-04-27 16:44 33.19049 26.60045 38038 ft 383 kts 303°
2026-04-27 16:45 33.22026 26.54812 38043 ft 384 kts 303°
2026-04-27 16:45 33.25019 26.49542 38041 ft 384 kts 303°
2026-04-27 16:46 33.28009 26.44271 38042 ft 383 kts 303°
2026-04-27 16:46 33.30988 26.39008 38039 ft 384 kts 303°
2026-04-27 16:47 33.33979 26.33720 38039 ft 383 kts 302°
2026-04-27 16:47 33.36962 26.28440 38042 ft 384 kts 302°
2026-04-27 16:48 33.39941 26.23158 38036 ft 384 kts 302°
2026-04-27 16:48 33.42908 26.17891 38035 ft 383 kts 302°
2026-04-27 16:49 33.47369 26.09954 38043 ft 383 kts 302°
2026-04-27 16:49 33.50325 26.04685 38042 ft 383 kts 302°
2026-04-27 16:50 33.53279 25.99413 38041 ft 383 kts 302°
2026-04-27 16:50 33.56247 25.94108 38034 ft 384 kts 302°
2026-04-27 16:51 33.59220 25.88787 38039 ft 384 kts 302°
2026-04-27 16:51 33.62167 25.83507 38034 ft 384 kts 302°
2026-04-27 16:52 33.65136 25.78176 38040 ft 384 kts 302°
2026-04-27 16:52 33.68092 25.72861 38038 ft 384 kts 302°
2026-04-27 16:53 33.71049 25.67540 38041 ft 384 kts 302°
2026-04-27 16:53 33.73996 25.62226 38045 ft 384 kts 302°
2026-04-27 16:54 33.76946 25.56901 38040 ft 384 kts 302°
2026-04-27 16:54 33.79897 25.51566 38032 ft 384 kts 302°
2026-04-27 16:55 33.82846 25.46225 38039 ft 384 kts 302°
2026-04-27 16:55 33.85795 25.40876 38042 ft 384 kts 302°
2026-04-27 16:56 33.88742 25.35525 38042 ft 384 kts 302°
2026-04-27 16:56 33.91687 25.30166 38048 ft 384 kts 302°
2026-04-27 16:57 33.94615 25.24836 38047 ft 384 kts 302°
2026-04-27 16:57 33.97568 25.19494 38046 ft 385 kts 303°
2026-04-27 16:58 34.00869 25.14415 38050 ft 386 kts 309°
2026-04-27 16:58 34.04608 25.09744 38054 ft 388 kts 313°
2026-04-27 16:59 34.08500 25.05267 38050 ft 387 kts 314°
2026-04-27 16:59 34.12411 25.00779 38041 ft 387 kts 313°
2026-04-27 17:00 34.18247 24.94070 38041 ft 387 kts 313°
2026-04-27 17:01 34.22152 24.89574 38039 ft 388 kts 313°
2026-04-27 17:01 34.26033 24.85100 38041 ft 388 kts 313°
2026-04-27 17:02 34.29929 24.80601 38041 ft 388 kts 313°
2026-04-27 17:02 34.33825 24.76098 38035 ft 388 kts 314°
2026-04-27 17:03 34.37723 24.71587 38041 ft 388 kts 314°
2026-04-27 17:03 34.41611 24.67082 38044 ft 388 kts 313°
2026-04-27 17:04 34.45525 24.62540 38038 ft 389 kts 313°
2026-04-27 17:04 34.49413 24.58021 38039 ft 389 kts 313°
2026-04-27 17:05 34.53587 24.53885 38042 ft 391 kts 320°
2026-04-27 17:05 34.57950 24.49936 38040 ft 391 kts 320°
2026-04-27 17:06 34.62301 24.45978 38042 ft 391 kts 320°
2026-04-27 17:06 34.66648 24.42006 38038 ft 392 kts 320°
2026-04-27 17:07 34.70979 24.38036 38041 ft 392 kts 320°
2026-04-27 17:07 34.75337 24.34035 38045 ft 392 kts 319°
2026-04-27 17:08 34.79678 24.30043 38047 ft 392 kts 319°
2026-04-27 17:08 34.84024 24.26041 38045 ft 392 kts 319°
2026-04-27 17:09 34.88361 24.22041 38039 ft 392 kts 319°
2026-04-27 17:09 34.92676 24.18056 38044 ft 392 kts 319°
2026-04-27 17:10 34.97023 24.14037 38039 ft 392 kts 319°
2026-04-27 17:10 35.01348 24.10031 38041 ft 392 kts 319°
2026-04-27 17:11 35.05709 24.05986 38045 ft 393 kts 319°
2026-04-27 17:11 35.12223 23.99932 38061 ft 392 kts 319°
2026-04-27 17:12 35.18702 23.93901 38084 ft 393 kts 320°
2026-04-27 17:13 35.23048 23.89848 38086 ft 394 kts 319°
2026-04-27 17:13 35.27413 23.85773 38090 ft 394 kts 319°
2026-04-27 17:14 35.31768 23.81701 38079 ft 394 kts 319°
2026-04-27 17:14 35.36097 23.77647 38071 ft 394 kts 319°
2026-04-27 17:15 35.40453 23.73563 38063 ft 394 kts 319°
2026-04-27 17:15 35.44768 23.69512 38061 ft 394 kts 319°
2026-04-27 17:16 35.49112 23.65428 38055 ft 393 kts 319°
2026-04-27 17:16 35.53448 23.61344 38062 ft 394 kts 319°
2026-04-27 17:17 35.57785 23.57253 38058 ft 394 kts 319°
2026-04-27 17:17 35.62132 23.53148 38055 ft 394 kts 319°
2026-04-27 17:18 35.68652 23.46981 38055 ft 395 kts 320°
2026-04-27 17:18 35.72975 23.42885 38062 ft 395 kts 319°
2026-04-27 17:19 35.77313 23.38769 38060 ft 394 kts 320°
2026-04-27 17:19 35.81675 23.34623 38059 ft 394 kts 319°
2026-04-27 17:20 35.86004 23.30505 38059 ft 394 kts 319°
2026-04-27 17:20 35.90302 23.26409 38061 ft 394 kts 319°
2026-04-27 17:21 35.94647 23.22263 38057 ft 394 kts 319°
2026-04-27 17:21 35.98982 23.18120 38061 ft 394 kts 319°
2026-04-27 17:22 36.03294 23.13991 38062 ft 394 kts 319°
2026-04-27 17:22 36.07618 23.09847 38061 ft 394 kts 319°
2026-04-27 17:23 36.11944 23.05696 38063 ft 394 kts 319°
2026-04-27 17:23 36.16288 23.01523 38061 ft 395 kts 319°
2026-04-27 17:24 36.20600 22.97370 38063 ft 395 kts 319°
2026-04-27 17:24 36.24939 22.93187 38067 ft 396 kts 319°
2026-04-27 17:25 36.29259 22.89016 38068 ft 395 kts 319°
2026-04-27 17:25 36.33595 22.84826 38067 ft 396 kts 319°
2026-04-27 17:26 36.37938 22.80622 38066 ft 396 kts 319°
2026-04-27 17:26 36.42271 22.76423 38067 ft 396 kts 319°
2026-04-27 17:27 36.46601 22.72217 38067 ft 397 kts 319°
2026-04-27 17:27 36.50958 22.67981 38068 ft 396 kts 319°
2026-04-27 17:28 36.55268 22.63783 38068 ft 396 kts 319°
2026-04-27 17:29 36.61790 22.57421 38068 ft 398 kts 319°
2026-04-27 17:29 36.66138 22.53170 38070 ft 398 kts 319°
2026-04-27 17:30 36.70485 22.48915 38072 ft 398 kts 319°
2026-04-27 17:30 36.77000 22.42525 38070 ft 398 kts 319°
2026-04-27 17:31 36.81340 22.38262 38071 ft 398 kts 319°
2026-04-27 17:31 36.85698 22.33975 38077 ft 398 kts 318°
2026-04-27 17:32 36.92231 22.27535 38091 ft 399 kts 318°
2026-04-27 17:33 36.96581 22.23238 38099 ft 399 kts 318°
2026-04-27 17:33 37.00943 22.18925 38096 ft 399 kts 318°
2026-04-27 17:34 37.04553 22.15347 38100 ft 399 kts 319°
2026-04-27 17:34 37.09617 22.10325 38088 ft 399 kts 318°
2026-04-27 17:35 37.13987 22.05983 38078 ft 399 kts 318°
2026-04-27 17:35 37.18321 22.01673 38079 ft 399 kts 318°
2026-04-27 17:36 37.22648 21.97360 38072 ft 400 kts 318°
2026-04-27 17:36 37.26992 21.93021 38082 ft 400 kts 319°
2026-04-27 17:37 37.31343 21.88672 38078 ft 400 kts 319°
2026-04-27 17:37 37.35706 21.84307 38091 ft 400 kts 318°
2026-04-27 17:38 37.40037 21.79962 38099 ft 401 kts 319°
2026-04-27 17:38 37.44397 21.75585 38110 ft 400 kts 319°
2026-04-27 17:39 37.48727 21.71229 38119 ft 401 kts 319°
2026-04-27 17:39 37.53086 21.66839 38115 ft 401 kts 319°
2026-04-27 17:40 37.57413 21.62476 38103 ft 401 kts 319°
2026-04-27 17:40 37.61771 21.58072 38093 ft 401 kts 319°
2026-04-27 17:41 37.66097 21.53693 38094 ft 401 kts 319°
2026-04-27 17:41 37.69727 21.50016 38088 ft 401 kts 319°
2026-04-27 17:42 37.74055 21.45623 38079 ft 402 kts 319°
2026-04-27 17:42 37.79143 21.40451 38078 ft 402 kts 319°
2026-04-27 17:43 37.82745 21.36785 38072 ft 402 kts 319°
2026-04-27 17:43 37.87810 21.31621 38072 ft 401 kts 318°
2026-04-27 17:44 37.91433 21.27920 38074 ft 402 kts 318°
2026-04-27 17:44 37.95763 21.23493 38061 ft 402 kts 318°
2026-04-27 17:45 38.00828 21.18304 38066 ft 402 kts 318°
2026-04-27 17:45 38.04435 21.14602 38066 ft 402 kts 318°
2026-04-27 17:46 38.08801 21.10114 38060 ft 403 kts 318°
2026-04-27 17:46 38.13139 21.05651 38063 ft 403 kts 318°
2026-04-27 17:47 38.17480 21.01176 38061 ft 402 kts 318°
2026-04-27 17:47 38.22526 20.95968 38056 ft 402 kts 318°
2026-04-27 17:48 38.26858 20.91487 38058 ft 402 kts 318°
2026-04-27 17:48 38.30465 20.87750 38057 ft 403 kts 318°
2026-04-27 17:49 38.34819 20.83234 38056 ft 403 kts 318°
2026-04-27 17:49 38.39134 20.78749 38063 ft 403 kts 318°
2026-04-27 17:50 38.43475 20.74230 38057 ft 403 kts 318°
2026-04-27 17:50 38.49978 20.67450 38060 ft 403 kts 319°
2026-04-27 17:51 38.55030 20.62171 38058 ft 404 kts 319°
2026-04-27 17:51 38.58652 20.58380 38060 ft 404 kts 319°
2026-04-27 17:52 38.62983 20.53840 38057 ft 405 kts 319°
2026-04-27 17:52 38.67330 20.49275 38056 ft 404 kts 319°
2026-04-27 17:53 38.71649 20.44732 38056 ft 404 kts 319°
2026-04-27 17:53 38.75986 20.40166 38051 ft 405 kts 319°
2026-04-27 17:54 38.80351 20.35561 38054 ft 405 kts 319°
2026-04-27 17:54 38.84689 20.30976 38049 ft 405 kts 318°
2026-04-27 17:55 38.89009 20.26404 38049 ft 405 kts 318°
2026-04-27 17:55 38.93361 20.21789 38047 ft 405 kts 318°
2026-04-27 17:56 38.97677 20.17205 38055 ft 405 kts 318°
2026-04-27 17:56 39.02023 20.12582 38047 ft 406 kts 318°
2026-04-27 17:57 39.06358 20.07963 38042 ft 407 kts 319°
2026-04-27 17:57 39.10717 20.03312 38050 ft 407 kts 318°
2026-04-27 17:58 39.15067 19.98662 38043 ft 407 kts 318°
2026-04-27 17:58 39.19392 19.94032 38043 ft 406 kts 318°
2026-04-27 17:59 39.23735 19.89374 38037 ft 405 kts 318°
2026-04-27 17:59 39.28037 19.84753 38045 ft 405 kts 318°
2026-04-27 18:00 39.32366 19.80094 38037 ft 405 kts 318°
2026-04-27 18:00 39.36691 19.75431 38041 ft 405 kts 318°
2026-04-27 18:01 39.41003 19.70775 38041 ft 405 kts 318°
2026-04-27 18:01 39.45320 19.66105 38039 ft 405 kts 319°
2026-04-27 18:02 39.49607 19.61461 38041 ft 405 kts 319°
2026-04-27 18:02 39.53920 19.56784 38045 ft 404 kts 318°
2026-04-27 18:03 39.58226 19.52105 38051 ft 404 kts 318°
2026-04-27 18:03 39.62515 19.47433 38062 ft 403 kts 318°
2026-04-27 18:04 39.67493 19.42004 38069 ft 403 kts 318°
2026-04-27 18:04 39.71045 19.38122 38058 ft 402 kts 318°
2026-04-27 18:05 39.75338 19.33425 38065 ft 403 kts 318°
2026-04-27 18:05 39.79604 19.28750 38069 ft 402 kts 318°
2026-04-27 18:06 39.83862 19.24074 38061 ft 402 kts 318°
2026-04-27 18:06 39.88126 19.19385 38069 ft 401 kts 318°
2026-04-27 18:07 39.92382 19.14697 38063 ft 401 kts 318°
2026-04-27 18:07 39.96632 19.10008 38056 ft 401 kts 318°
2026-04-27 18:08 40.00876 19.05317 38048 ft 401 kts 318°
2026-04-27 18:08 40.05145 19.00648 38035 ft 402 kts 320°
2026-04-27 18:09 40.09659 18.96388 38035 ft 403 kts 323°
2026-04-27 18:09 40.14263 18.92221 38035 ft 402 kts 323°
2026-04-27 18:10 40.18860 18.88056 38026 ft 402 kts 323°
2026-04-27 18:10 40.23423 18.83913 38027 ft 401 kts 323°
2026-04-27 18:11 40.28015 18.79734 38031 ft 401 kts 323°
2026-04-27 18:11 40.32600 18.75554 38034 ft 402 kts 323°
2026-04-27 18:12 40.37173 18.71377 38037 ft 402 kts 323°
2026-04-27 18:12 40.41746 18.67192 38038 ft 402 kts 323°
2026-04-27 18:13 40.46315 18.63006 38036 ft 402 kts 323°
2026-04-27 18:13 40.50880 18.58817 38035 ft 402 kts 323°
2026-04-27 18:14 40.55466 18.54601 38035 ft 402 kts 323°
2026-04-27 18:14 40.60027 18.50400 38033 ft 402 kts 323°
2026-04-27 18:15 40.64583 18.46198 38034 ft 401 kts 323°
2026-04-27 18:15 40.69145 18.41981 38038 ft 401 kts 323°
2026-04-27 18:16 40.73705 18.37760 38037 ft 401 kts 323°
2026-04-27 18:16 40.78249 18.33546 38037 ft 402 kts 322°
2026-04-27 18:17 40.82834 18.29288 38040 ft 401 kts 322°
2026-04-27 18:17 40.87391 18.25047 38038 ft 401 kts 322°
2026-04-27 18:18 40.91926 18.20820 38034 ft 401 kts 322°
2026-04-27 18:18 40.96478 18.16571 38040 ft 401 kts 322°
2026-04-27 18:19 41.01007 18.12336 38034 ft 401 kts 322°
2026-04-27 18:19 41.05553 18.08075 38031 ft 402 kts 323°
2026-04-27 18:20 41.10112 18.03795 38038 ft 402 kts 323°
2026-04-27 18:20 41.14679 17.99500 38039 ft 402 kts 323°
2026-04-27 18:21 41.19209 17.95235 38035 ft 401 kts 323°
2026-04-27 18:21 41.23741 17.90963 38034 ft 401 kts 323°
2026-04-27 18:22 41.28295 17.86660 38035 ft 401 kts 323°
2026-04-27 18:22 41.32821 17.82372 38035 ft 402 kts 323°
2026-04-27 18:23 41.37364 17.78065 38035 ft 402 kts 323°
2026-04-27 18:23 41.41896 17.73757 38036 ft 402 kts 323°
2026-04-27 18:24 41.46453 17.69422 38037 ft 401 kts 323°
2026-04-27 18:24 41.50979 17.65108 38036 ft 402 kts 323°
2026-04-27 18:25 41.55521 17.60771 38038 ft 402 kts 324°
2026-04-27 18:25 41.60045 17.56444 38037 ft 403 kts 324°
2026-04-27 18:26 41.64608 17.52070 38040 ft 403 kts 324°
2026-04-27 18:26 41.69127 17.47731 38041 ft 403 kts 324°
2026-04-27 18:27 41.73663 17.43368 38036 ft 403 kts 324°
2026-04-27 18:27 41.78204 17.38996 38035 ft 403 kts 324°
2026-04-27 18:28 41.82742 17.34616 38040 ft 404 kts 323°
2026-04-27 18:28 41.87306 17.30202 38047 ft 404 kts 324°
2026-04-27 18:29 41.91827 17.25812 38042 ft 403 kts 322°
2026-04-27 18:29 41.96171 17.21040 38046 ft 403 kts 320°
2026-04-27 18:30 42.00424 17.16157 38036 ft 402 kts 320°
2026-04-27 18:30 42.04679 17.11265 38040 ft 403 kts 320°
2026-04-27 18:31 42.08913 17.06392 38039 ft 404 kts 320°
2026-04-27 18:31 42.13188 17.01465 38039 ft 404 kts 320°
2026-04-27 18:32 42.17425 16.96571 38038 ft 404 kts 320°
2026-04-27 18:32 42.21740 16.91700 38033 ft 403 kts 321°
2026-04-27 18:33 42.26062 16.86936 38041 ft 403 kts 321°
2026-04-27 18:33 42.30372 16.82168 38042 ft 403 kts 321°
2026-04-27 18:34 42.34691 16.77375 38039 ft 403 kts 321°
2026-04-27 18:34 42.39012 16.72564 38039 ft 403 kts 321°
2026-04-27 18:35 42.43336 16.67742 38039 ft 404 kts 321°
2026-04-27 18:35 42.47654 16.62916 38036 ft 404 kts 321°
2026-04-27 18:36 42.51999 16.58053 38038 ft 404 kts 321°
2026-04-27 18:36 42.56308 16.53221 38039 ft 404 kts 321°
2026-04-27 18:37 42.60630 16.48365 38038 ft 404 kts 321°
2026-04-27 18:37 42.64936 16.43516 38039 ft 404 kts 321°
2026-04-27 18:38 42.69255 16.38644 38039 ft 404 kts 321°
2026-04-27 18:38 42.73566 16.33772 38039 ft 404 kts 321°
2026-04-27 18:39 42.77914 16.28849 38040 ft 405 kts 321°
2026-04-27 18:39 42.82234 16.23951 38039 ft 405 kts 320°
2026-04-27 18:40 42.86533 16.19066 38039 ft 405 kts 320°
2026-04-27 18:40 42.90853 16.14148 38035 ft 405 kts 320°
2026-04-27 18:41 42.95162 16.09232 38037 ft 404 kts 320°
2026-04-27 18:41 42.99450 16.04332 38037 ft 405 kts 320°
2026-04-27 18:42 43.03030 16.00233 38041 ft 405 kts 320°
2026-04-27 18:42 43.08062 15.94462 38040 ft 406 kts 321°
2026-04-27 18:43 43.12388 15.89489 38043 ft 406 kts 320°
2026-04-27 18:43 43.16710 15.84513 38038 ft 405 kts 320°
2026-04-27 18:44 43.20993 15.79571 38042 ft 404 kts 320°
2026-04-27 18:44 43.25285 15.74610 38040 ft 404 kts 320°
2026-04-27 18:45 43.29577 15.69639 38039 ft 404 kts 320°
2026-04-27 18:45 43.33851 15.64680 38034 ft 404 kts 320°
2026-04-27 18:46 43.38120 15.59717 38040 ft 404 kts 320°
2026-04-27 18:46 43.42401 15.54729 38040 ft 404 kts 320°
2026-04-27 18:47 43.46680 15.49736 38041 ft 404 kts 320°
2026-04-27 18:47 43.50940 15.44755 38039 ft 404 kts 320°
2026-04-27 18:48 43.55232 15.39727 38037 ft 404 kts 320°
2026-04-27 18:48 43.59495 15.34724 38038 ft 404 kts 320°
2026-04-27 18:49 43.63755 15.29714 38042 ft 404 kts 320°
2026-04-27 18:49 43.68022 15.24684 38041 ft 403 kts 320°
2026-04-27 18:50 43.72265 15.19674 38039 ft 404 kts 320°
2026-04-27 18:50 43.76504 15.14660 38039 ft 403 kts 320°
2026-04-27 18:51 43.80772 15.09603 38041 ft 403 kts 320°
2026-04-27 18:51 43.85017 15.04562 38042 ft 403 kts 320°
2026-04-27 18:52 43.89251 14.99524 38042 ft 404 kts 320°
2026-04-27 18:53 43.95627 14.91919 38038 ft 403 kts 320°
2026-04-27 18:53 43.99856 14.86862 38036 ft 403 kts 320°
2026-04-27 18:54 44.04072 14.81812 38039 ft 403 kts 320°
2026-04-27 18:54 44.08312 14.76722 38035 ft 403 kts 320°
2026-04-27 18:55 44.12563 14.71609 38040 ft 403 kts 320°
2026-04-27 18:55 44.16826 14.66472 38040 ft 403 kts 320°
2026-04-27 18:56 44.21056 14.61363 38040 ft 403 kts 320°
2026-04-27 18:56 44.25267 14.56269 38041 ft 403 kts 320°
2026-04-27 18:57 44.29502 14.51136 38042 ft 404 kts 320°
2026-04-27 18:57 44.33735 14.45994 38044 ft 404 kts 320°
2026-04-27 18:58 44.37978 14.40831 38043 ft 403 kts 320°
2026-04-27 18:58 44.42197 14.35685 38042 ft 403 kts 320°
2026-04-27 18:59 44.46157 14.30846 38044 ft 403 kts 319°
2026-04-27 18:59 44.50377 14.25679 38043 ft 403 kts 319°
2026-04-27 19:00 44.54594 14.20506 38041 ft 403 kts 319°
2026-04-27 19:00 44.58827 14.15303 38042 ft 404 kts 319°
2026-04-27 19:01 44.63044 14.10112 38045 ft 404 kts 319°
2026-04-27 19:01 44.67165 14.05026 38042 ft 404 kts 319°
2026-04-27 19:02 44.71337 13.99867 38043 ft 404 kts 319°
2026-04-27 19:02 44.75402 13.94831 38043 ft 403 kts 319°
2026-04-27 19:03 44.79585 13.89640 38043 ft 403 kts 319°
2026-04-27 19:03 44.83819 13.84374 38048 ft 403 kts 319°
2026-04-27 19:04 44.88038 13.79115 38048 ft 403 kts 319°
2026-04-27 19:04 44.92270 13.73828 38044 ft 403 kts 319°
2026-04-27 19:05 44.95894 13.69292 38046 ft 403 kts 319°
2026-04-27 19:06 45.05163 13.57657 38041 ft 402 kts 319°
2026-04-27 19:06 45.09338 13.52400 38048 ft 402 kts 319°
2026-04-27 19:07 45.12364 13.48585 38047 ft 402 kts 319°
2026-04-27 19:07 45.15570 13.44534 38045 ft 402 kts 319°
2026-04-27 19:08 45.23151 13.34933 38045 ft 402 kts 318°